Regional Weather Roundup
Issued by NWS

Home | Current Version | Previous Version | Graphics & Text | Print | Product List | Glossary Off
Versions: 1 2 3 4 5 6 7 8 9 10 11 12 13 14 15 16 17 18 19 20 21 22 23 24 25 26 27

000
ASUS43 KDMX 231707
RWRIA

WEATHER ROUNDUP FOR IOWA
NATIONAL WEATHER SERVICE DES MOINES IA
1200 PM CDT WED APR 23 2014

NOTE: "FAIR" INDICATES FEW OR NO CLOUDS BELOW 12,000 FEET WITH NO
SIGNIFICANT WEATHER AND/OR OBSTRUCTIONS TO VISIBILITY.

* - THESE STATIONS ARE NOT NWS STATIONS...THUS NOT UNDER NWS
QUALITY CONTROL.  THEY ALSO DO NOT REPORT WEATHER SUCH
AS PRECIPITATION OR FOG.

IAZ001>003-012>014-020>022-031>034-043>046-231800-
   NORTHWEST IOWA

CITY           SKY/WX    TMP DP  RH WIND       PRES   REMARKS
CARROLL *      CLOUDY    46  41  81 SE22G28   29.91F
CHEROKEE *     CLOUDY    50  39  66 SE23      29.86F
DENISON *      PTSUNNY   48  41  76 SE22G33   29.83F
LE MARS *      PTSUNNY   54  41  62 SE28G45   29.79F
ORANGE CITY *  PTSUNNY   54  37  54 SE20G30   29.80F
SHELDON *      CLOUDY    50  36  57 SE30G38   29.83F
SIOUX CITY     PTSUNNY   55  42  61 SE26G39   29.79F
SPENCER        CLOUDY    51  33  50 SE28G38   29.89S
STORM LAKE *   PTSUNNY   46  39  76 SE26G44   29.86F
$$

IAZ055>058-069>071-079>083-090>094-231800-
   SOUTHWEST IOWA

CITY           SKY/WX    TMP DP  RH WIND       PRES   REMARKS
ATLANTIC *     LGT RAIN  46  39  76 SE16G23   29.91F
AUDUBON *      RAIN      45  37  76 SE17G28   29.93F
CLARINDA *     CLOUDY    52  41  66 SE16G24   29.93F
COUNCIL BLFS * PTSUNNY   50  45  81 SE26G35   29.83F
CRESTON *      CLOUDY    48  41  76 SE14      29.97S
HARLAN  *      CLOUDY    46  41  81 S22G32    29.91S
LAMONI         CLOUDY    51  35  54 SE9G21    29.97F
RED OAK *      PTSUNNY   52  43  71 SE21      29.89F
SHENANDOAH *   CLOUDY    52  43  71 SE17G32   29.89F
$$

IAZ047>049-059>061-072>074-084-231800-
   CENTRAL IOWA

CITY           SKY/WX    TMP DP  RH WIND       PRES   REMARKS
AMES           LGT RAIN  48  36  63 SE21G28   30.01F
ANKENY *       LGT RAIN  50  37  62 SE13G20   30.01F
CHARITON *     SUNNY     50  37  62 SE16G23   30.00F
DES MOINES     LGT RAIN  50  38  63 SE15G21   30.01F
GRINNELL*      CLOUDY    50  32  50 SE20      30.06F
KNOXVILLE *    SUNNY     50  32  50 SE17G23   30.02F
MARSHALLTOWN   PTSUNNY   50  31  48 SE21G30   30.05F
NEWTON *       PTSUNNY   52  32  46 SE23G32   30.05F
PELLA *        CLOUDY    52  32  46 SE18G24   30.06F
PERRY *        LGT RAIN  48  37  66 SE16      29.99S
$$

IAZ004>006-015-016-023>025-035-036-231800-
   NORTH CENTRAL IOWA

CITY           SKY/WX    TMP DP  RH WIND       PRES   REMARKS
ALGONA *       PTSUNNY   50  34  53 SE21G31   29.95F
CLARION *      CLOUDY    50  32  50 SE24G31   29.99F
ESTHERVILLE    CLOUDY    49  34  56 SE28G36   29.92S
FORT DODGE *   CLOUDY    50  30  46 SE20G31   29.97F
MASON CITY     CLOUDY    46  33  60 SE22G30   30.06F
FOREST CITY *  CLOUDY    46  32  57 SE21G29   30.01S
IOWA FALLS *   CLOUDY    50  32  50 SE22      30.04F
$$

IAZ007>011-017>019-026>030-037>042-050>054-066-231800-
   NORTHEAST IOWA

CITY           SKY/WX    TMP DP  RH WIND       PRES   REMARKS
CEDAR RAPIDS   CLOUDY    49  31  49 SE15      30.10F
CHARLES CITY * MOSUNNY   46  32  57 SE21      30.08F
CLINTON *      PTSUNNY   46  28  49 E13       30.18F
DECORAH *      MOSUNNY   46  28  49 SE12G18   30.10F
DUBUQUE        PTSUNNY   47  29  49 SE9       30.13F
MONTICELLO *   PTSUNNY   46  30  53 SE15      30.12F
OELWEIN *      PTSUNNY  N/A N/A N/A SE22      30.10F
WATERLOO       PTSUNNY   49  30  48 SE15      30.08F
$$

IAZ064-065-067-068-078-231800-
   EAST CENTRAL IOWA

CITY           SKY/WX    TMP DP  RH WIND       PRES   REMARKS
DAVENPORT      PTSUNNY   49  29  46 SE9       30.16S
IOWA CITY      CLOUDY    50  32  50 SE14G20   30.14F
MT. PLEASANT * PTSUNNY   54  28  37 SE14      30.12F
MUSCATINE *    PTSUNNY   54  30  40 SE13      30.13F
QUAD CITIES    PTSUNNY   50  29  44 SE8       30.16S
$$

IAZ062-063-075>077-085>089-095>099-231800-
   SOUTHEAST IOWA

CITY           SKY/WX    TMP DP  RH WIND       PRES   REMARKS
BURLINGTON     CLOUDY    53  31  42 SE12      30.12F
FAIRFIELD *    CLOUDY    52  30  43 SE15      30.10F
FORT MADISON * MOSUNNY   54  34  47 E12       30.12F
KEOKUK *       CLOUDY    52  32  46 SE8G15    30.11F
OSKALOOSA *    CLOUDY    50  32  50 SE23      30.08F
CENTERVILLE *  SUNNY     50  37  62 SE17G23   30.05F
OTTUMWA        CLOUDY    50  32  50 SE18      30.07F
WASHINGTON *   PTSUNNY   52  30  43 SE15G22   30.12S
$$

ABBREVIATIONS USED IN REMARKS
   TC - TEMPERATURES IN CELSIUS
  WCI - WIND CHILL INDEX
   HX - HEAT INDEX
  VSB - VISIBILITY
$$




USA.gov is the U.S. government's official web portal to all federal, state and local government web resources and services.